Theta_e
290 283 279 281 283 283 283 282 282 283 284 282 282 281 284 286 285 285 285 286 288 289 292 293 294 294 294 296 296 297 297 297 296 295 295 294 295 295 295 296 296 296 296 295
285 281 284 286 286 283 283 282 280 283 283 282 279 280 284 284 284 285 285 285 286 288 289 291 293 292 291 292 294 295 296 296 296 296 295 295 295 295 295 296 296 296 296 296
282 283 286 285 281 282 280 280 278 279 281 279 276 280 280 283 283 284 285 286 286 287 288 289 290 290 290 290 291 294 296 295 295 296 295 294 294 294 294 294 294 295 295 295
281 284 283 282 280 281 280 280 280 279 275 273 275 271 277 278 279 281 283 283 285 286 288 289 288 289 288 289 291 294 295 295 295 295 295 294 293 293 292 294 294 293 293 293
280 280 280 279 279 281 279 281 280 277 270 271 271 268 275 276 278 279 281 281 283 284 286 287 287 287 288 288 289 292 293 294 294 294 294 293 292 293 293 292 291 291 292 292
280 282 281 280 281 281 281 277 275 273 268 265 262 266 274 276 276 279 281 281 282 283 285 286 287 287 287 287 288 289 289 289 291 291 291 292 291 290 290 290 289 289 290 290
277 279 281 281 280 281 277 270 265 266 264 266 257 267 275 279 279 279 279 280 281 282 284 284 284 285 285 285 286 287 287 286 288 288 288 289 288 288 288 287 287 287 287 288
267 270 275 280 278 277 276 270 266 261 263 266 259 266 275 278 279 279 280 280 281 282 283 283 284 284 284 284 284 284 285 284 285 285 285 286 286 286 286 286 286 285 285 286
268 271 279 280 279 277 274 267 272 261 253 260 266 271 277 278 276 277 279 280 280 281 282 283 283 283 282 282 283 283 283 283 284 284 284 284 284 284 284 284 284 284 284 285
274 269 272 279 279 277 274 275 268 265 262 260 263 259 272 271 272 275 277 276 278 280 282 282 283 283 282 281 282 282 283 283 283 283 283 283 283 283 283 283 283 283 283 284
273 269 271 276 268 268 270 268 268 268 267 263 260 268 272 269 267 270 273 276 274 276 279 281 282 282 282 282 281 281 281 282 282 283 283 283 283 283 283 283 283 283 283 283
279 274 267 271 273 275 274 271 273 267 263 263 265 266 274 268 264 262 272 275 276 275 277 278 280 282 281 282 282 282 281 281 282 282 282 283 283 282 282 282 283 283 283 283
278 268 263 271 271 272 270 274 272 267 270 265 264 269 268 262 266 266 269 275 275 275 275 276 276 279 281 281 282 282 281 281 281 281 281 281 281 281 281 282 282 283 282 283
282 274 268 268 268 266 268 271 273 269 261 268 268 274 277 275 273 277 278 275 272 272 273 273 272 274 278 279 279 279 279 280 280 280 280 280 281 281 281 282 282 282 282 282
278 267 269 269 267 265 268 270 270 268 270 266 274 265 274 276 273 273 270 269 272 275 276 277 273 274 274 275 276 276 276 277 278 278 277 279 281 281 280 280 281 281 281 281
277 265 265 265 269 271 268 272 272 271 271 266 271 270 264 268 262 268 274 273 272 274 277 279 278 272 272 273 274 274 274 274 275 274 275 276 275 276 276 278 279 279 279 279
269 264 260 261 264 263 265 266 267 267 263 266 264 268 262 269 272 275 276 275 273 276 276 279 278 274 272 271 271 272 273 269 269 271 272 272 272 272 273 274 276 276 278 278
269 261 261 261 258 257 271 270 270 269 270 264 267 269 270 270 270 273 273 271 273 277 278 279 278 273 270 267 266 267 263 266 268 269 271 273 272 272 273 273 275 275 277 276
277 268 260 258 256 265 271 269 270 269 269 273 272 272 273 274 275 274 277 277 278 279 279 279 278 274 270 269 271 268 269 270 269 271 274 274 273 272 273 274 275 276 275 276
274 276 266 256 255 258 268 270 273 273 265 272 273 273 272 273 268 272 276 278 278 279 279 279 280 278 277 278 277 274 273 274 274 276 276 276 275 274 273 275 275 276 276 276
269 270 266 264 259 263 272 273 273 263 267 273 273 273 272 270 272 275 277 276 278 278 278 280 280 279 279 280 279 278 278 276 278 279 277 276 275 275 275 276 275 275 274 274
267 265 261 261 259 261 272 272 268 271 273 273 273 273 273 273 274 274 275 275 276 276 277 279 278 279 280 281 279 278 277 279 278 277 277 277 277 277 278 276 276 275 273 272
266 271 265 268 268 272 274 273 275 275 273 273 273 274 273 273 273 274 273 275 275 276 277 277 277 279 280 280 279 278 278 278 276 275 275 275 275 276 277 275 275 274 274 273
271 270 267 268 269 272 273 274 275 275 274 275 275 274 274 272 274 274 274 275 275 275 276 276 276 277 278 279 280 280 280 279 274 274 273 272 273 274 273 274 275 274 273 273
271 268 264 266 269 270 272 273 274 274 274 274 274 273 273 273 273 274 273 274 274 275 275 276 275 275 276 277 277 279 278 274 273 272 271 272 273 272 272 273 273 273 274 274
270 269 268 267 271 271 272 274 275 273 272 273 272 272 273 273 272 273 273 274 274 274 275 274 274 274 275 275 275 276 276 273 272 272 271 272 272 271 271 271 272 276 278 279
Wind_Speed
5 10 5 4 4 2 2 2 3 2 5 5 3 8 13 7 6 7 6 5 5 4 2 3 5 6 8 5 6 4 6 7 6 2 2 1 1 1 1 1 2 2 2 2
7 5 4 4 4 4 5 2 4 5 4 3 6 14 13 8 6 5 5 5 6 3 4 4 6 7 7 7 7 3 4 6 4 2 2 1 1 1 1 1 1 1 1 1
7 3 6 3 6 5 3 2 3 4 8 3 7 8 7 3 3 1 2 3 4 5 4 4 5 5 6 8 8 5 3 6 5 4 3 2 2 1 1 2 2 3 3 3
7 6 4 5 5 4 3 4 3 4 6 3 6 7 9 6 10 5 6 5 4 3 3 3 5 5 7 7 7 4 3 5 4 4 3 3 2 2 1 1 1 2 4 3
3 6 7 8 2 2 2 4 3 3 4 5 9 6 12 5 7 6 7 7 6 4 3 4 4 4 4 6 6 4 4 5 4 3 3 3 3 1 1 1 2 2 3 4
2 1 3 2 2 0 2 1 5 4 4 5 4 3 9 3 3 5 5 7 6 5 4 4 3 4 4 5 5 4 4 4 4 5 5 5 5 3 2 2 2 2 2 3
6 4 4 3 3 2 6 7 6 9 7 5 3 2 12 6 5 3 8 11 8 5 4 4 5 4 3 3 3 2 3 3 3 4 4 5 5 5 5 3 1 1 1 1
4 8 5 6 3 2 5 5 7 5 3 6 3 6 7 3 5 6 7 7 7 4 4 5 6 5 4 2 2 2 2 2 2 3 4 3 4 2 2 2 1 1 1 2
4 5 2 2 2 3 2 4 3 9 1 4 3 9 11 2 5 7 8 7 7 6 6 8 7 6 5 4 3 2 2 2 2 2 2 3 3 3 2 1 1 0 1 2
3 4 2 4 1 5 4 3 4 5 3 6 5 7 8 6 8 9 11 10 9 7 9 8 6 6 5 5 4 4 4 4 3 3 2 2 2 2 2 2 1 1 1 2
4 5 6 3 2 5 3 3 5 4 3 5 3 8 9 7 5 6 8 8 8 11 11 9 7 6 6 5 6 5 5 5 4 4 3 3 2 2 2 2 2 2 2 2
1 4 3 9 2 2 2 5 4 6 7 2 1 11 3 7 5 4 10 10 10 7 10 10 10 8 8 9 7 7 6 6 5 5 4 4 3 3 3 3 3 3 4 3
4 3 5 11 4 3 3 5 4 3 2 8 4 9 1 2 6 6 9 12 12 10 12 9 8 10 11 10 9 8 7 8 6 5 4 4 4 4 5 4 4 4 4 5
2 2 8 9 9 3 4 4 5 5 4 4 10 21 18 12 12 16 16 10 10 11 11 9 10 10 11 11 10 8 8 6 5 5 6 6 6 5 4 4 4 5 4 6
4 4 1 5 6 3 5 10 8 11 10 6 23 5 16 15 9 9 8 10 11 14 14 14 9 10 10 11 9 7 7 5 5 6 5 7 6 4 4 5 5 5 5 6
2 3 2 7 3 3 7 18 8 12 10 9 16 19 2 6 6 7 13 10 11 13 15 20 15 11 12 10 9 6 8 6 5 6 7 6 5 4 6 6 5 5 6 5
3 5 4 7 5 7 8 10 5 4 5 7 4 7 5 6 10 14 16 12 13 16 17 19 18 14 11 8 7 9 8 3 6 6 6 6 5 6 6 5 5 6 6 5
6 5 3 5 5 1 9 4 4 8 6 5 7 8 8 8 8 12 7 7 12 16 19 20 16 10 9 6 6 5 3 5 6 6 8 8 6 7 6 5 7 7 5 7
2 4 1 2 3 9 7 2 4 2 0 7 5 8 9 12 12 5 4 10 19 21 18 16 15 10 8 9 7 6 5 5 5 9 10 7 6 6 6 7 8 7 5 6
1 3 5 3 3 6 3 1 1 4 4 6 6 10 14 15 13 12 19 20 19 18 17 17 18 11 9 14 8 7 7 6 9 10 9 6 5 6 7 7 7 5 4 7
4 2 6 4 5 11 5 5 1 5 5 10 7 9 10 7 7 17 17 16 18 17 18 19 18 14 14 12 6 9 8 10 11 8 5 5 6 6 6 6 4 6 7 7
8 8 6 2 1 10 6 3 3 3 5 7 7 6 10 12 14 15 16 16 16 17 18 19 16 16 16 15 11 11 11 12 7 6 6 6 6 5 4 6 6 6 6 7
3 7 6 10 6 1 5 9 1 3 4 6 8 12 11 15 16 17 14 18 17 19 18 16 14 17 15 12 12 14 14 9 6 6 7 6 5 5 5 6 7 6 6 7
5 3 3 3 1 4 4 3 3 5 7 11 12 12 13 16 18 18 16 17 17 17 19 16 16 17 18 12 14 14 15 12 7 8 6 5 6 7 6 5 5 7 7 7
3 3 4 4 1 2 3 4 7 10 10 12 14 14 15 13 17 17 15 16 16 16 16 16 16 15 18 16 14 13 13 6 8 7 6 7 6 6 5 5 6 7 8 8
3 4 3 2 3 4 6 6 9 8 11 12 15 16 15 15 17 16 15 15 14 15 17 16 17 15 17 17 16 13 7 6 8 8 6 6 5 3 4 5 8 14 18 19
Wind_Direction
4 65 47 347 335 341 326 293 293 316 9 332 315 291 288 281 265 264 249 238 242 263 301 331 344 347 348 1 337 253 185 171 152 133 137 164 216 180 221 224 223 192 173 158
29 70 335 290 5 61 33 346 314 295 11 346 5 299 277 269 250 219 238 237 241 266 321 338 349 3 4 342 344 298 208 169 164 133 138 125 136 132 145 129 92 88 85 81
87 338 324 53 29 35 48 36 348 255 319 87 320 309 322 331 341 311 202 215 216 224 264 337 348 351 350 353 339 318 199 159 162 152 125 105 101 107 105 74 78 37 46 49
69 328 19 51 70 6 30 332 309 345 31 292 8 289 296 333 307 269 269 253 266 289 345 350 343 349 352 343 336 359 130 147 159 159 142 142 141 139 131 109 85 61 41 42
279 10 17 49 322 337 275 30 32 66 79 43 1 78 272 353 324 357 349 290 264 263 279 314 342 344 344 349 352 15 74 82 102 114 131 133 132 129 129 120 98 37 24 44
125 140 65 218 262 197 283 40 42 56 79 30 287 87 285 290 322 317 304 335 283 251 257 287 318 347 344 356 10 27 63 66 85 99 99 114 119 120 112 56 46 22 17 38
355 3 339 13 321 19 42 44 347 359 11 222 303 15 246 301 294 267 316 319 324 276 278 292 306 317 330 350 1 28 56 58 54 85 97 115 127 130 131 133 117 60 16 4
92 335 9 356 50 315 39 119 148 226 259 275 14 235 247 245 296 309 294 295 312 285 278 275 270 265 269 304 345 12 99 110 78 84 83 71 71 74 86 96 95 44 355 336
68 294 338 12 344 69 286 46 158 98 80 40 274 288 309 323 33 6 336 344 341 308 280 266 262 247 246 240 232 234 203 167 134 118 117 106 113 115 117 86 49 359 319 315
182 355 270 294 15 39 119 155 33 5 344 306 305 272 245 325 329 340 359 351 319 292 270 256 252 247 239 233 229 229 231 219 201 185 179 168 168 166 171 189 202 240 293 317
130 100 288 30 180 183 23 16 42 119 129 193 270 257 213 218 227 284 316 311 297 298 292 284 265 250 241 240 236 239 237 228 223 216 208 204 210 209 220 239 247 261 261 273
190 135 255 228 138 146 168 190 164 125 268 234 187 269 190 215 235 225 296 294 293 275 286 286 276 253 232 230 232 231 228 227 226 217 214 224 230 229 237 236 237 244 271 269
175 323 360 338 15 3 203 206 144 114 79 210 146 260 11 340 310 267 270 300 304 299 300 292 281 264 246 238 232 228 224 225 222 213 218 225 226 229 236 242 246 249 261 274
114 148 173 199 213 146 264 208 193 145 144 230 223 272 290 320 340 335 326 311 301 295 292 292 293 266 250 236 231 228 231 220 218 215 217 219 221 222 232 254 262 265 262 274
111 200 275 258 236 215 252 253 204 197 228 207 276 257 286 317 313 286 288 293 310 315 317 309 289 284 261 248 241 235 230 221 216 224 224 230 228 223 234 243 246 252 250 245
31 240 105 296 343 296 268 265 237 234 251 261 281 282 326 254 296 309 312 310 313 312 311 315 309 285 273 250 241 235 237 228 205 225 234 239 244 234 236 244 246 252 255 249
102 126 76 262 343 331 304 246 173 203 216 163 219 246 276 333 340 327 310 319 312 313 308 316 314 296 284 256 233 238 235 189 213 228 242 248 243 242 241 245 256 258 257 256
129 95 101 269 7 42 241 151 148 204 258 228 302 299 305 281 254 267 279 268 304 319 323 318 310 292 279 254 247 244 233 216 217 230 243 243 233 239 246 242 248 254 243 241
169 120 56 150 222 298 299 167 137 162 350 6 292 315 316 317 302 298 337 333 320 313 308 306 295 277 276 258 247 226 228 222 214 235 235 234 217 240 243 245 250 250 244 255
33 77 121 74 145 252 246 127 136 111 253 353 352 340 334 341 334 322 328 318 311 309 307 306 304 289 269 268 233 212 235 221 232 237 237 229 223 225 235 241 251 253 235 261
141 196 219 197 244 282 277 289 283 84 301 352 352 330 330 320 280 294 302 308 311 310 308 308 310 294 278 269 246 256 245 230 234 235 223 226 228 231 231 248 234 253 255 259
172 157 207 127 234 278 334 35 86 337 325 323 323 288 295 288 290 295 304 306 308 306 308 309 307 301 295 287 264 249 256 250 230 215 224 229 232 231 234 239 263 252 247 259
278 198 182 183 216 26 22 87 51 285 261 274 283 295 291 293 295 300 301 307 311 309 308 308 306 298 289 288 285 278 267 263 228 213 229 226 235 236 229 236 258 264 252 251
241 161 209 65 38 102 121 192 234 253 265 294 296 294 300 298 303 301 302 304 304 306 305 310 311 305 297 298 292 266 260 255 230 238 233 217 235 239 219 228 235 247 253 250
207 98 178 264 338 15 293 326 304 313 307 302 299 286 288 296 296 298 299 299 298 303 306 310 307 304 300 303 299 297 281 240 245 242 236 231 232 233 245 230 236 239 250 238
182 196 166 214 210 200 270 274 277 272 290 297 307 307 306 305 305 305 299 301 301 304 307 303 303 305 307 309 302 302 291 247 249 258 257 243 232 232 238 252 279 253 266 271